TimeCDT,TemperatureF,Dew PointF,Humidity,Sea Level PressureIn,VisibilityMPH,Wind Direction,Wind SpeedMPH,Gust SpeedMPH,PrecipitationIn,Events,Conditions,WindDirDegrees,DateUTC
12:13 AM,73.4,69.8,88,29.86,10.0,East,4.6,-,N/A,,Overcast,100,2013-06-23 05:13:00
12:34 AM,73.4,69.8,88,29.84,10.0,East,4.6,-,N/A,,Overcast,90,2013-06-23 05:34:00
12:54 AM,73.4,69.8,88,29.82,10.0,ESE,6.9,-,N/A,,Scattered Clouds,110,2013-06-23 05:54:00
1:13 AM,73.4,69.8,88,29.80,10.0,SE,9.2,-,N/A,,Clear,130,2013-06-23 06:13:00
1:34 AM,73.4,69.8,88,29.81,10.0,Calm,Calm,-,N/A,,Scattered Clouds,0,2013-06-23 06:34:00
1:54 AM,73.4,69.8,88,29.81,10.0,East,6.9,-,N/A,,Scattered Clouds,90,2013-06-23 06:54:00
2:13 AM,73.4,69.8,88,29.81,10.0,ESE,4.6,-,N/A,,Scattered Clouds,110,2013-06-23 07:13:00
2:34 AM,73.4,69.8,88,29.81,10.0,ESE,10.4,-,N/A,,Mostly Cloudy,120,2013-06-23 07:34:00
2:54 AM,73.4,69.8,88,29.80,10.0,SE,6.9,-,N/A,,Overcast,130,2013-06-23 07:54:00
3:13 AM,73.4,69.8,88,29.79,10.0,ESE,13.8,19.6,N/A,,Overcast,120,2013-06-23 08:13:00
3:34 AM,73.4,69.8,88,29.77,10.0,ESE,11.5,-,N/A,,Scattered Clouds,120,2013-06-23 08:34:00
3:54 AM,73.4,69.8,88,29.76,10.0,ESE,10.4,-,N/A,,Scattered Clouds,120,2013-06-23 08:54:00
4:13 AM,73.4,69.8,88,29.76,10.0,SE,9.2,-,N/A,,Scattered Clouds,140,2013-06-23 09:13:00
4:34 AM,73.4,69.8,88,29.74,10.0,SE,12.7,19.6,N/A,,Clear,140,2013-06-23 09:34:00
4:54 AM,73.4,69.8,88,29.75,10.0,SSE,11.5,20.7,N/A,,Scattered Clouds,150,2013-06-23 09:54:00
5:14 AM,73.4,69.8,88,29.73,10.0,SSE,10.4,18.4,N/A,,Mostly Cloudy,150,2013-06-23 10:14:00
5:34 AM,73.4,69.8,88,29.75,10.0,South,10.4,-,N/A,,Overcast,180,2013-06-23 10:34:00
5:54 AM,73.4,68.0,83,29.77,10.0,South,13.8,24.2,N/A,Rain,Light Rain,180,2013-06-23 10:54:00
6:14 AM,71.6,69.8,94,29.79,7.0,South,8.1,-,0.38,Rain,Heavy Rain,190,2013-06-23 11:14:00
6:34 AM,71.6,69.8,94,29.78,10.0,South,12.7,-,0.42,Rain,Light Rain,170,2013-06-23 11:34:00
6:50 AM,71.6,69.8,94,29.77,4.0,SE,12.7,-,N/A,Rain,Rain,140,2013-06-23 11:50:00
6:54 AM,71.6,69.8,94,29.77,10.0,SSE,11.5,19.6,0.47,Rain,Rain,150,2013-06-23 11:54:00
7:50 AM,71.6,69.8,94,29.74,10.0,SSE,13.8,20.7,N/A,Rain,Light Rain,150,2013-06-23 12:50:00
8:55 AM,73.4,69.8,88,29.69,10.0,SSE,18.4,26.5,N/A,,Overcast,150,2013-06-23 13:55:00
9:45 AM,73.4,69.8,88,29.71,10.0,South,12.7,20.7,N/A,,Overcast,180,2013-06-23 14:45:00
10:45 AM,75.2,69.8,83,29.74,10.0,SSW,12.7,20.7,N/A,,Overcast,200,2013-06-23 15:45:00
11:45 AM,75.2,68.0,78,29.77,10.0,SW,16.1,20.7,N/A,,Overcast,220,2013-06-23 16:45:00
12:45 PM,78.8,68.0,69,29.79,10.0,South,15.0,20.7,N/A,,Mostly Cloudy,190,2013-06-23 17:45:00
1:45 PM,80.6,66.2,61,29.78,10.0,SSW,15.0,20.7,N/A,,Mostly Cloudy,200,2013-06-23 18:45:00
2:50 PM,80.6,66.2,61,29.80,10.0,WSW,15.0,20.7,N/A,,Mostly Cloudy,240,2013-06-23 19:50:00
3:45 PM,82.4,66.2,58,29.79,10.0,SW,11.5,20.7,N/A,,Mostly Cloudy,230,2013-06-23 20:45:00
4:45 PM,82.4,64.4,54,29.79,10.0,WSW,11.5,17.3,N/A,,Mostly Cloudy,240,2013-06-23 21:45:00
5:45 PM,84.2,64.4,51,29.80,10.0,SW,11.5,18.4,N/A,,Mostly Cloudy,230,2013-06-23 22:45:00
6:55 PM,82.4,64.4,54,29.82,10.0,WSW,9.2,-,N/A,,Scattered Clouds,240,2013-06-23 23:55:00
7:50 PM,80.6,64.4,58,29.83,10.0,WSW,9.2,-,N/A,,Scattered Clouds,240,2013-06-24 00:50:00
8:45 PM,78.8,64.4,61,29.84,10.0,WSW,5.8,-,N/A,,Scattered Clouds,240,2013-06-24 01:45:00
9:14 PM,77.0,64.4,65,29.84,10.0,SW,4.6,-,N/A,,Clear,230,2013-06-24 02:14:00
9:34 PM,77.0,64.4,65,29.85,10.0,Calm,Calm,-,N/A,,Clear,0,2013-06-24 02:34:00
9:45 PM,77.0,64.4,65,29.86,10.0,Calm,Calm,-,N/A,,Scattered Clouds,0,2013-06-24 02:45:00
9:54 PM,73.4,66.2,78,29.86,10.0,Calm,Calm,-,N/A,,Clear,0,2013-06-24 02:54:00
10:14 PM,69.8,66.2,88,29.87,10.0,South,3.5,-,N/A,,Clear,170,2013-06-24 03:14:00
10:34 PM,69.8,66.2,88,29.87,10.0,South,4.6,-,N/A,,Clear,180,2013-06-24 03:34:00
10:53 PM,71.6,66.2,83,29.88,10.0,South,3.5,-,N/A,,Clear,170,2013-06-24 03:53:00
11:14 PM,69.8,66.2,88,29.88,10.0,South,3.5,-,N/A,,Clear,180,2013-06-24 04:14:00
11:34 PM,69.8,66.2,88,29.88,10.0,Calm,Calm,-,N/A,,Clear,0,2013-06-24 04:34:00
11:53 PM,69.8,66.2,88,29.88,10.0,Calm,Calm,-,N/A,,Clear,0,2013-06-24 04:53:00